TimeEDT,TemperatureF,Dew PointF,Humidity,Sea Level PressureIn,VisibilityMPH,Wind Direction,Wind SpeedMPH,Gust SpeedMPH,PrecipitationIn,Events,Conditions,WindDirDegrees,DateUTC
12:54 AM,57.9,55.0,90,30.07,10.0,Calm,Calm,-,N/A,,Clear,0,2013-10-01 04:54:00
1:54 AM,55.9,55.0,97,30.07,10.0,Calm,Calm,-,N/A,,Clear,0,2013-10-01 05:54:00
2:54 AM,55.0,54.0,96,30.07,10.0,Calm,Calm,-,N/A,,Clear,0,2013-10-01 06:54:00
3:54 AM,55.0,54.0,96,30.06,10.0,Calm,Calm,-,N/A,,Mostly Cloudy,0,2013-10-01 07:54:00
4:54 AM,53.1,52.0,96,30.07,8.0,Calm,Calm,-,N/A,,Clear,0,2013-10-01 08:54:00
5:54 AM,55.0,54.0,96,30.08,10.0,Calm,Calm,-,N/A,,Overcast,0,2013-10-01 09:54:00
6:54 AM,55.0,54.0,96,30.09,10.0,South,3.5,-,N/A,,Mostly Cloudy,190,2013-10-01 10:54:00
7:54 AM,57.0,55.0,93,30.10,10.0,Calm,Calm,-,N/A,,Overcast,0,2013-10-01 11:54:00
8:54 AM,57.9,55.9,93,30.12,10.0,Calm,Calm,-,N/A,,Scattered Clouds,0,2013-10-01 12:54:00
9:54 AM,66.0,57.9,75,30.12,10.0,Calm,Calm,-,N/A,,Clear,0,2013-10-01 13:54:00
10:47 AM,71.6,60.8,69,30.18,10.0,West,6.9,-,N/A,,Clear,280,2013-10-01 14:47:00
10:54 AM,75.0,57.9,55,30.12,10.0,Calm,Calm,-,0.00,,Clear,0,2013-10-01 14:54:00
11:54 AM,79.0,57.0,47,30.10,10.0,Variable,4.6,-,N/A,,Clear,0,2013-10-01 15:54:00
12:54 PM,80.1,55.0,42,30.09,10.0,Variable,4.6,-,N/A,,Clear,0,2013-10-01 16:54:00
1:54 PM,79.0,53.1,40,30.07,10.0,Variable,3.5,-,N/A,,Clear,0,2013-10-01 17:54:00
2:54 PM,81.0,53.1,38,30.05,10.0,Calm,Calm,-,N/A,,Clear,0,2013-10-01 18:54:00
3:54 PM,79.0,55.0,44,30.04,10.0,Variable,4.6,-,N/A,,Mostly Cloudy,0,2013-10-01 19:54:00
4:54 PM,79.0,57.0,47,30.04,10.0,Calm,Calm,-,N/A,,Partly Cloudy,0,2013-10-01 20:54:00
5:54 PM,79.0,55.0,44,30.04,10.0,WSW,4.6,-,N/A,,Partly Cloudy,240,2013-10-01 21:54:00
6:54 PM,70.0,59.0,68,30.05,10.0,Calm,Calm,-,N/A,,Clear,0,2013-10-01 22:54:00
7:54 PM,66.0,59.0,78,30.06,10.0,Calm,Calm,-,N/A,,Clear,0,2013-10-01 23:54:00
8:54 PM,62.1,57.9,86,30.07,10.0,Calm,Calm,-,N/A,,Clear,0,2013-10-02 00:54:00
9:54 PM,61.0,57.9,90,30.08,10.0,Calm,Calm,-,N/A,,Clear,0,2013-10-02 01:54:00
10:54 PM,59.0,57.0,93,30.09,10.0,Calm,Calm,-,N/A,,Clear,0,2013-10-02 02:54:00
11:54 PM,57.9,57.0,97,30.09,9.0,Calm,Calm,-,N/A,,Clear,0,2013-10-02 03:54:00